FW4185 Weather Reports


Display with metric or nautical units.
time (UTC)temp
F
wind
direction
speed
MPH
gust
MPH
rain 1hr
in
rain 24hr
in
rain mn
in
humidity
%
barometer
mb
20260510151438 0 355 7.0 5.0 0.00 0.00 0.01
20260510150647 50 356 7.0 10.0 0.00 0.00 0.01 48 1015.7
20260510150007 49 357 7.0 11.0 0.00 0.00 0.01 51 1015.6
20260510145328 0 355 6.0 6.0 0.00 0.00 0.01
20260510144426 0 356 7.0 9.0 0.00 0.00 0.01
20260510143521 0 356 6.0 7.0 0.00 0.00 0.01
20260510142620 50 357 5.0 10.0 0.00 0.00 0.01 50 1015.0
20260510141941 50 355 5.0 9.0 0.00 0.00 0.01 48 1014.9
20260510141302 0 356 6.0 4.0 0.00 0.00 0.01
20260510140512 49 358 5.0 8.0 0.00 0.00 0.01 48 1014.8
20260510135832 51 356 4.0 8.0 0.00 0.00 0.01 47 1014.7
20260510135151 49 356 6.0 8.0 0.00 0.00 0.01 48 1014.7
20260510134515 0 358 4.0 3.0 0.00 0.00 0.01
20260510133530 48 356 5.0 5.0 0.00 0.00 0.01 49 1014.5
20260510132745 49 355 5.0 8.0 0.00 0.00 0.01 50 1014.4
20260510132100 48 356 4.0 7.0 0.00 0.00 0.01 51 1014.3
20260510131425 50 357 2.0 4.0 0.00 0.00 0.01 50 1014.2
20260510130410 50 356 4.0 7.0 0.00 0.00 0.01 50 1014.0
20260510125731 50 355 4.0 8.0 0.00 0.00 0.01 48 1013.9
20260510125051 49 357 6.0 7.0 0.00 0.00 0.01 49 1013.9
20260510124300 50 354 4.0 9.0 0.00 0.00 0.01 49 1013.8
20260510123621 49 356 6.0 9.0 0.00 0.00 0.01 47 1013.7
20260510122941 50 358 3.0 7.0 0.00 0.00 0.01 50 1013.6
20260510122301 0 357 6.0 2.0 0.00 0.00 0.01
20260510121513 0 356 6.0 3.0 0.00 0.00 0.01
20260510120502 49 354 5.0 8.0 0.00 0.00 0.01 60 1013.3
20260510115822 49 356 4.0 6.0 0.00 0.00 0.01 54 1013.2
20260510115142 0 357 0.0 0.0 0.00 0.00 0.01
20260510114350 48 357 0.0 0.0 0.00 0.00 0.01 52 1013.0
20260510113710 48 358 0.0 4.0 0.00 0.00 0.01 54 1013.0
20260510112919 0 356 2.0 6.0 0.00 0.00 0.01
20260510112126 0 358 1.0 2.0 0.00 0.00 0.01
20260510111338 47 356 0.0 6.0 0.00 0.00 0.01 57 1012.5
20260510110658 0 357 2.0 7.0 0.00 0.00 0.01
20260510105756 48 357 0.0 5.0 0.00 0.00 0.01 53 1012.2
20260510105116 48 357 4.0 6.0 0.00 0.00 0.01 53 1011.9
20260510104436 48 356 1.0 7.0 0.00 0.00 0.01 52 1011.8
20260510103756 48 356 3.0 7.0 0.00 0.00 0.01 50 1011.7
20260510103116 47 358 0.0 7.0 0.00 0.00 0.01 53 1011.5
20260510102436 47 355 4.0 7.0 0.00 0.00 0.01 51 1011.4
20260510101756 47 355 0.0 6.0 0.00 0.00 0.01 52 1011.3
20260510101116 0 359 0.0 6.0 0.00 0.00 0.01
20260510100327 0 357 0.0 5.0 0.00 0.00 0.01
20260510095538 48 357 2.0 7.0 0.00 0.00 0.01 52 1010.6
20260510094857 47 356 3.0 9.0 0.00 0.00 0.01 53 1010.3
20260510094218 0 359 0.0 6.0 0.00 0.00 0.01
20260510093357 48 357 0.0 0.0 0.00 0.00 0.01 56 1010.0
20260510092717 47 357 0.0 0.0 0.00 0.00 0.01 56 1010.1
20260510092037 0 356 0.0 0.0 0.00 0.00 0.01
20260510091022 48 356 0.0 7.0 0.00 0.00 0.01 55 1009.8
20260510090342 0 356 0.0 10.0 0.00 0.00 0.01
20260510085553 50 356 2.0 10.0 0.00 0.00 0.01 53 1010.5
20260510084914 49 356 0.0 0.0 0.00 0.00 0.01 49 1009.8
20260510084234 49 358 0.0 0.0 0.00 0.00 0.01 53 1009.3
20260510083555 49 355 0.0 0.0 0.00 0.00 0.01 51 1009.3
20260510082915 0 354 0.0 8.0 0.00 0.00 0.01
20260510082126 50 355 0.0 0.0 0.00 0.00 0.01 47 1009.4
20260510081447 51 356 0.0 7.0 0.00 0.00 0.01 53 1009.2
20260510080807 0 355 0.0 0.0 0.00 0.00 0.01
20260510080016 0 355 0.0 0.0 0.00 0.00 0.01
20260510075223 51 358 0.0 3.0 0.00 0.00 0.01 60 1009.0
20260510074543 51 357 0.0 6.0 0.00 0.00 0.01 56 1009.0
20260510073904 51 356 0.0 6.0 0.00 0.00 0.01 56 1009.1
20260510073223 51 358 0.0 6.0 0.00 0.00 0.01 59 1008.6
20260510072544 51 358 0.0 5.0 0.00 0.00 0.01 63 1008.9
20260510071904 0 358 2.0 5.0 0.00 0.00 0.01
20260510071116 0 358 0.0 6.0 0.00 0.00 0.01
20260510065422 51 357 0.0 6.0 0.00 0.00 0.01 72 1008.4
20260510064742 51 357 1.0 6.0 0.00 0.00 0.01 72 1008.2
20260510064102 0 356 0.0 4.0 0.00 0.00 0.01
20260510063310 51 359 0.0 6.0 0.00 0.00 0.01 86 1008.0
20260510062522 0 357 1.0 5.0 0.00 0.00 0.01
20260510061732 50 356 0.0 3.0 0.00 0.00 0.01 88 1007.9
20260510061053 0 354 0.0 0.0 0.00 0.00 0.01
20260510060305 0 357 0.0 5.0 0.00 0.00 0.01
20260510055404 0 356 0.0 7.0 0.00 0.00 0.01
20260510054504 0 355 0.0 4.0 0.00 0.00 0.01
20260510053712 0 356 0.0 0.0 0.00 0.00 0.01
20260510052920 52 358 0.0 0.0 0.00 0.00 0.01 84 1007.6
20260510052130 51 356 0.0 0.0 0.00 0.00 0.01 84 1007.5
20260510051450 51 357 0.0 0.0 0.00 0.00 0.01 87 1007.7
20260510050810 50 356 0.0 0.0 0.00 0.00 0.01 87 1007.0
20260510050130 50 357 0.0 0.0 0.00 0.00 0.01 86 1006.3
20260510045450 51 357 0.0 0.0 0.00 0.00 0.00 84 1007.1
20260510044550 52 358 0.0 0.0 0.00 0.00 0.00 86 1006.7
20260510043911 52 356 0.0 0.0 0.00 0.00 0.00 87 1006.6
20260510043122 51 359 0.0 0.0 0.00 0.00 0.00 87 1006.6
20260510042442 0 357 0.0 0.0 0.00 0.00 0.00
20260510041543 0 357 0.0 0.0 0.00 0.00 0.00
20260510040534 51 356 0.0 0.0 0.00 0.00 0.00 85 1006.2
20260510035855 51 357 0.0 0.0 0.00 0.00 0.00 84 1006.1
20260510035215 0 357 0.0 0.0 0.00 0.00 0.00
20260510034427 52 357 0.0 0.0 0.00 0.00 0.00 83 1006.2
20260510033746 0 357 0.0 0.0 0.00 0.00 0.00
20260510032957 0 358 0.0 0.0 0.00 0.00 0.00
20260510032056 54 356 0.0 0.0 0.00 0.00 0.00 76 1006.2
20260510031418 54 358 0.0 6.0 0.00 0.00 0.00 76 1006.1
20260510030736 0 355 4.0 6.0 0.00 0.00 0.33
20260510025948 0 357 0.0 0.0 0.00 0.00 0.33
20260510025155 54 354 0.0 0.0 0.00 0.00 0.33 76 1005.9
20260510024515 53 357 0.0 0.0 0.00 0.00 0.33 78 1005.6
20260510023835 53 357 0.0 4.0 0.00 0.00 0.33 78 1005.6
20260510023155 53 358 0.0 5.0 0.00 0.00 0.33 78 1005.5
20260510022517 0 357 0.0 8.0 0.00 0.00 0.33
20260510021354 0 355 1.0 5.0 0.00 0.00 0.33
20260510020236 52 356 0.0 7.0 0.00 0.00 0.33 81 1005.3
20260510015555 52 357 0.0 8.0 0.00 0.00 0.33 82 1005.5
20260510014915 53 357 2.0 6.0 0.00 0.00 0.33 82 1005.4
20260510014236 53 357 0.0 5.0 0.00 0.00 0.33 81 1005.3
20260510013556 0 357 0.0 5.0 0.00 0.00 0.33
20260510012655 53 356 0.0 8.0 0.00 0.00 0.33 79 1005.2
20260510012015 54 354 6.0 9.0 0.00 0.00 0.33 79 1005.1
20260510011334 54 358 6.0 11.0 0.00 0.00 0.33 79 1005.1
20260510010655 54 356 6.0 14.0 0.00 0.00 0.33 79 1005.0
20260510010015 0 357 7.0 9.0 0.00 0.00 0.33
20260510005225 54 356 12.0 18.0 0.00 0.00 0.33 75 1004.9
20260510004545 0 358 10.0 9.0 0.00 0.00 0.33
20260510003754 54 356 10.0 22.0 0.00 0.00 0.33 80 1004.1
20260510003114 53 355 13.0 22.0 0.00 0.00 0.33 81 1003.9
20260510002434 53 356 10.0 19.0 0.00 0.00 0.33 90 1003.8
20260510001755 0 356 10.0 6.0 0.00 0.00 0.33
20260510001005 53 356 16.0 22.0 0.00 0.00 0.33 97 1004.3
20260510000327 0 356 11.0 12.0 0.00 0.00 0.33
20260509235426 0 356 10.0 9.0 0.00 0.00 0.32
20260509234634 0 358 7.0 10.0 0.00 0.00 0.30
20260509233841 51 359 1.0 2.0 0.00 0.00 0.27 97 1005.1
20260509233051 0 357 8.0 8.0 0.00 0.00 0.25
20260509232306 0 355 9.0 9.0 0.00 0.00 0.23
20260509231511 51 355 12.0 21.0 0.00 0.00 0.21 97 1005.6
20260509230831 0 356 17.0 17.0 0.00 0.00 0.18
20260509225928 51 354 24.0 46.0 0.00 0.00 0.10 93 1005.0
20260509225248 56 355 8.0 11.0 0.00 0.00 0.00 74 1004.0
20260509224608 0 356 0.0 0.0 0.00 0.00 0.00
20260509223819 56 355 0.0 0.0 0.00 0.00 0.00 69 1003.0
20260509223139 57 360 0.0 0.0 0.00 0.00 0.00 67 1002.9
20260509222459 0 358 0.0 0.0 0.00 0.00 0.00
20260509221708 58 355 0.0 0.0 0.00 0.00 0.00 65 1002.5
20260509221028 58 356 0.0 0.0 0.00 0.00 0.00 66 1002.4
20260509220350 58 355 0.0 0.0 0.00 0.00 0.00 63 1002.5
20260509215708 58 357 0.0 0.0 0.00 0.00 0.00 63 1002.6
20260509215029 0 356 0.0 0.0 0.00 0.00 0.00
20260509214132 59 360 0.0 0.0 0.00 0.00 0.00 62 1002.6
20260509213452 59 356 0.0 5.0 0.00 0.00 0.00 60 1002.6
20260509212813 60 354 1.0 5.0 0.00 0.00 0.00 60 1002.7
20260509212131 59 356 0.0 6.0 0.00 0.00 0.00 64 1002.7
20260509211452 57 358 2.0 7.0 0.00 0.00 0.00 66 1003.1
20260509210812 0 355 0.0 0.0 0.00 0.00 0.00
20260509210022 0 356 0.0 0.0 0.00 0.00 0.00
20260509205124 59 357 0.0 6.0 0.00 0.00 0.00 63 1003.2
20260509204445 0 353 2.0 2.0 0.00 0.00 0.00
20260509203658 0 359 0.0 0.0 0.00 0.00 0.00
20260509202751 57 356 0.0 0.0 0.00 0.00 0.00 67 1003.0
20260509202110 57 356 0.0 0.0 0.00 0.00 0.00 67 1003.2
20260509201431 57 357 0.0 0.0 0.00 0.00 0.00 67 1003.3
20260509200751 59 353 0.0 0.0 0.00 0.00 0.00 64 1003.4
20260509200110 60 357 0.0 0.0 0.00 0.00 0.00 63 1003.5
20260509195430 59 355 0.0 0.0 0.00 0.00 0.00 65 1003.4
20260509194751 60 353 0.0 6.0 0.00 0.00 0.00 66 1003.4
20260509194110 59 355 2.0 7.0 0.00 0.00 0.00 65 1003.5
20260509193431 59 350 3.0 7.0 0.00 0.00 0.00 67 1003.6
20260509192637 59 356 0.0 0.0 0.00 0.00 0.00 65 1003.8
20260509191959 59 356 0.0 6.0 0.00 0.00 0.00 64 1003.9
20260509191318 60 356 3.0 8.0 0.00 0.00 0.00 63 1004.0
20260509190638 58 354 4.0 8.0 0.00 0.00 0.00 66 1004.1
20260509185957 60 356 3.0 9.0 0.00 0.00 0.00 64 1004.1
20260509185318 60 355 6.0 9.0 0.00 0.00 0.00 64 1004.2
20260509184638 0 352 6.0 7.0 0.00 0.00 0.00
20260509183742 60 357 4.0 8.0 0.00 0.00 0.00 63 1004.1
20260509183102 0 356 4.0 6.0 0.00 0.00 0.00
20260509182312 0 355 6.0 4.0 0.00 0.00 0.00
20260509181524 58 356 4.0 8.0 0.00 0.00 0.00 65 1004.5
20260509180843 60 354 0.0 0.0 0.00 0.00 0.00 63 1004.5
20260509180203 59 356 0.0 0.0 0.00 0.00 0.00 63 1004.6
20260509175523 0 356 0.0 7.0 0.00 0.00 0.00
20260509174622 58 354 4.0 7.0 0.00 0.00 0.00 66 1004.9
20260509173942 60 357 0.0 0.0 0.00 0.00 0.00 64 1005.2
20260509173301 58 355 0.0 0.0 0.00 0.00 0.00 66 1005.1
20260509172621 59 353 0.0 7.0 0.00 0.00 0.00 65 1005.1
20260509171946 60 357 0.0 6.0 0.00 0.00 0.00 62 1005.1
20260509171302 0 0 4.0 4.0 0.00 0.00 0.00
20260509170501 58 358 5.0 10.0 0.00 0.00 0.00 65 1005.2
20260509165821 60 354 2.0 7.0 0.00 0.00 0.00 64 1005.2
20260509165146 60 359 1.0 8.0 0.00 0.00 0.00 63 1005.1
20260509164502 59 357 3.0 8.0 0.00 0.00 0.00 65 1005.3
20260509163823 0 357 0.0 0.0 0.00 0.00 0.00
20260509163035 0 354 0.0 8.0 0.00 0.00 0.00
20260509162135 60 355 5.0 8.0 0.00 0.00 0.00 61 1005.4
20260509161456 60 355 0.0 0.0 0.00 0.00 0.00 62 1005.4
20260509160817 0 354 0.0 0.0 0.00 0.00 0.00
20260509160026 60 356 0.0 0.0 0.00 0.00 0.00 62 1005.4
20260509155346 59 357 0.0 0.0 0.00 0.00 0.00 62 1005.5
20260509154705 59 357 0.0 4.0 0.00 0.00 0.00 62 1005.6
20260509154026 0 350 0.0 6.0 0.00 0.00 0.00
20260509153201 59 357 0.0 0.0 0.00 0.00 0.00 63 1005.7
20260509152521 58 356 0.0 0.0 0.00 0.00 0.00 64 1005.7
20260509151841 58 356 0.0 0.0 0.00 0.00 0.00 63 1005.7